Location: Ecklingerode
(51.5036°N, 10.3122°E)
Time: 07:50:27
(UTC+00:00)

Cosmos 2263 Rocket - Pass Details

Date: 29 October 2020
Orbit: 822 x 850 km, 71.0° (Epoch: 01 December)

Event Time Altitude Azimuth Distance (km) Brightness Sun altitude
Rises 18:36:35 0° 329° (NNW) 3,422 5.9 -25.3°
Reaches altitude 10° 18:39:03 10° 330° (NNW) 2,485 5.1 -25.7°
Maximum altitude 18:44:46 87° 58° (ENE) 859 2.1 -26.6°
Enters shadow 18:45:15 76° 140° (SE) 880 2.0 -26.7°
